Wind_Speed
3 3 2 1 0 1 1 1 2 3 4 5 6 6 7 7 8 8 9 9 9 9 10 11 11 11 12 12 12 12 12 11 10 10 10 9 9 8 7 7 6 6 5
3 2 2 1 0 1 1 2 3 4 4 5 6 7 8 8 8 9 10 9 10 9 9 10 11 11 12 12 11 12 12 12 11 10 10 10 9 9 8 8 7 6 6
3 3 2 1 1 2 2 3 3 4 5 5 7 8 8 8 8 9 10 10 9 9 9 9 10 11 11 11 11 11 11 11 11 11 10 10 10 9 9 8 7 7 6
3 3 2 1 1 2 2 3 3 4 5 6 7 8 8 8 8 9 10 10 10 10 10 10 10 11 11 11 11 11 11 10 11 11 11 10 10 9 9 9 8 7 6
3 3 2 2 1 1 2 3 4 4 5 6 7 8 8 8 8 9 9 9 9 9 9 10 10 10 11 11 11 12 11 11 11 11 11 10 10 9 9 8 8 8 7
3 3 2 1 1 1 2 3 4 5 6 7 7 7 8 8 8 8 9 9 9 9 10 10 11 11 11 11 11 12 12 12 12 11 11 11 10 10 9 9 9 8 8
3 3 2 1 1 2 3 4 5 5 6 6 7 7 8 8 8 9 9 9 9 9 9 10 11 11 12 12 11 12 12 13 13 12 11 11 10 10 9 9 9 9 9
3 3 2 2 2 2 3 4 5 5 5 6 6 6 7 8 8 9 10 9 9 9 10 10 11 12 12 12 12 12 12 13 12 13 12 11 11 11 10 9 9 9 9
3 3 2 2 2 2 3 3 4 5 5 6 6 7 7 8 9 9 10 10 10 10 10 11 11 12 12 13 13 13 13 13 13 13 13 12 12 11 11 10 10 9 10
4 3 2 2 2 2 3 3 4 5 6 6 7 8 8 8 9 10 10 10 10 10 11 11 11 11 12 12 13 13 13 13 13 13 14 13 12 12 12 11 10 10 10
4 3 3 2 2 2 3 3 4 5 6 6 7 8 8 9 10 11 11 11 11 11 11 11 11 11 11 11 12 12 13 13 13 13 14 14 13 13 13 12 11 10 10
4 3 3 2 2 3 3 4 4 5 6 7 7 8 9 10 10 11 11 11 11 11 11 11 11 11 11 11 12 12 12 13 13 13 14 14 14 14 14 14 13 12 11
4 4 3 2 2 3 3 3 5 5 6 7 8 9 9 10 10 11 11 12 11 11 12 12 12 11 12 11 11 12 12 12 13 14 14 14 15 15 15 14 14 13 12
5 4 3 2 2 2 3 4 5 6 7 7 8 8 9 10 10 11 12 12 12 12 12 12 12 12 12 12 12 12 12 12 13 13 14 14 15 16 15 15 15 14 13
5 4 2 2 1 1 2 4 5 6 6 7 8 8 9 10 11 11 12 12 13 13 13 12 12 12 11 11 11 12 12 12 12 13 13 14 15 16 16 16 16 15 14
4 3 1 1 0 2 3 4 5 5 6 7 7 8 9 11 12 13 13 13 13 13 13 13 12 12 11 10 10 11 12 12 12 12 13 14 14 15 16 16 16 16 15
4 2 1 1 1 2 2 3 4 5 6 7 7 8 10 11 13 14 14 14 14 13 13 12 12 11 10 10 10 10 11 11 12 12 13 14 14 15 16 16 16 17 16
4 3 2 1 1 2 2 3 5 6 6 7 8 9 11 12 13 14 14 15 14 13 13 12 11 11 10 10 9 10 10 11 11 12 13 14 15 16 16 17 18 17 17
3 2 2 1 1 2 3 4 5 6 7 8 9 10 11 12 13 14 15 15 14 14 13 13 12 11 10 9 9 9 10 11 11 12 12 14 15 16 17 17 18 18 18
4 3 2 1 1 2 3 4 5 6 7 9 10 11 12 13 13 14 15 15 14 14 14 13 12 11 10 9 9 9 9 10 11 12 12 13 14 15 16 17 18 19 19
4 3 2 1 2 2 3 4 5 7 8 9 10 11 12 13 14 14 15 15 14 14 14 13 12 11 9 8 8 8 8 9 10 12 12 12 14 14 15 17 18 19 20
5 3 2 2 2 3 4 5 6 7 8 9 10 11 12 13 14 14 14 15 15 15 14 13 12 10 9 7 7 6 7 8 9 10 12 12 13 14 15 17 18 19 21
5 3 3 2 2 3 4 5 6 7 8 9 10 11 12 13 14 14 14 15 14 14 14 13 12 10 8 7 6 5 6 7 8 9 11 12 13 14 15 16 18 19 20
4 3 2 2 3 4 4 5 6 7 8 9 10 11 12 12 13 14 15 15 14 14 13 13 12 10 9 7 6 5 5 5 6 8 9 11 13 14 15 16 17 18 20
4 3 2 2 3 4 4 5 6 7 8 9 10 11 11 12 13 14 14 14 14 14 13 12 12 11 9 7 6 5 4 4 5 6 8 10 12 13 14 15 17 18 19
4 3 3 3 4 4 5 6 6 7 8 9 10 10 11 12 13 13 13 14 14 14 13 12 12 11 9 8 7 6 4 4 4 5 7 9 10 12 13 14 16 17 18
Wind_Direction
240 212 191 183 90 35 358 332 316 314 313 311 306 300 297 294 296 295 291 283 279 279 275 268 264 262 262 264 262 261 261 260 260 261 261 262 263 263 261 259 256 253 249
213 188 190 204 250 331 331 321 315 312 306 307 307 302 299 297 296 293 291 286 280 276 273 270 267 265 262 262 262 260 259 257 257 261 262 260 260 262 261 258 256 254 249
199 176 180 201 285 310 317 314 313 311 308 309 309 307 304 300 298 295 292 287 281 278 272 269 268 265 262 261 260 259 258 255 257 258 259 258 257 259 260 257 255 251 246
194 176 191 244 294 308 316 315 313 312 316 316 313 312 309 304 302 301 296 290 283 277 273 270 269 267 263 260 261 260 257 256 257 256 257 257 254 258 260 255 251 244 237
202 187 209 250 285 312 322 318 319 320 321 320 319 317 313 309 308 305 299 295 287 279 276 274 270 269 265 262 261 259 257 256 256 253 255 253 251 255 256 251 247 237 230
203 194 207 233 269 299 318 318 319 323 324 324 323 322 321 318 313 308 305 302 295 285 279 277 274 271 268 263 263 260 258 257 256 253 253 250 247 250 249 246 240 230 223
188 199 205 220 269 308 324 330 326 321 323 329 329 326 324 323 320 315 311 306 300 293 286 280 276 275 270 265 264 261 258 257 256 252 251 248 243 242 242 239 233 226 219
178 186 187 226 284 309 316 326 330 327 327 330 330 331 331 330 327 323 317 311 305 298 293 287 281 276 271 266 264 263 262 259 255 251 248 247 240 237 236 234 229 226 219
182 190 198 239 280 301 316 331 339 334 331 334 334 333 331 330 327 325 322 317 311 304 299 294 288 281 275 269 266 264 262 260 255 250 246 245 238 233 231 229 228 225 217
185 194 208 239 273 298 320 334 335 335 335 336 334 332 330 329 327 325 323 319 313 307 302 297 292 287 282 275 268 264 261 258 256 248 245 241 235 230 227 226 224 221 215
183 192 211 240 260 297 312 324 331 336 338 337 335 334 334 331 328 326 325 320 315 310 304 299 294 289 286 279 272 266 261 257 255 250 244 239 234 228 226 224 222 218 215
190 203 218 226 266 291 311 325 329 335 337 335 336 337 335 329 326 327 326 323 318 314 308 302 297 290 284 280 273 267 262 255 251 248 243 238 233 228 227 223 220 217 216
194 197 205 219 266 291 312 323 327 331 335 334 337 339 335 332 332 329 326 325 320 315 309 304 299 292 285 280 274 268 264 258 251 247 241 236 231 226 225 221 220 218 217
186 186 198 211 247 287 307 320 328 330 334 333 336 338 338 339 339 334 329 325 322 318 313 306 301 295 288 280 274 268 263 258 251 246 241 236 230 224 223 220 219 218 219
187 190 199 195 225 313 311 323 327 327 329 330 336 341 344 344 342 339 334 332 328 323 317 310 304 297 291 284 274 267 262 257 250 244 238 233 230 225 222 220 219 218 218
177 178 175 195 8 346 328 329 328 331 335 335 339 345 347 346 344 342 339 336 332 328 323 317 309 301 293 285 276 267 262 257 250 240 235 230 227 224 220 219 219 219 220
172 173 170 135 18 335 329 336 337 338 337 342 344 346 346 344 343 342 340 338 335 332 329 323 315 306 297 286 275 268 261 256 247 240 235 229 226 223 220 219 219 218 219
174 175 176 172 348 332 331 335 340 343 344 347 347 346 345 344 344 344 342 340 338 336 333 328 320 312 301 289 277 267 260 253 246 240 236 230 226 224 222 221 220 218 218
183 180 185 198 329 331 329 333 340 342 345 348 348 348 347 346 346 346 345 344 341 338 336 332 326 317 307 292 280 269 260 251 244 239 235 229 226 224 223 222 221 219 218
187 196 205 239 296 313 323 332 339 344 347 350 349 349 348 346 347 347 347 346 344 340 337 335 332 324 314 299 285 274 261 250 241 237 234 228 224 224 224 223 221 220 219
190 192 196 255 292 309 328 338 344 345 347 349 349 348 348 348 349 349 348 347 345 342 339 337 335 331 323 311 294 276 262 252 241 235 232 229 225 224 224 223 222 220 219
192 194 217 259 294 315 330 338 341 341 344 346 346 347 348 350 352 351 350 348 347 346 343 341 338 335 330 321 305 283 265 256 243 235 232 229 227 226 225 224 223 222 221
193 203 230 257 297 314 325 331 334 336 340 343 343 345 347 348 351 352 350 349 349 349 348 347 347 342 336 329 317 297 276 262 248 237 233 230 228 227 227 224 223 222 221
193 213 242 272 299 309 320 327 330 333 337 341 344 344 344 346 349 352 352 351 352 352 353 353 353 351 347 340 329 310 287 269 253 242 238 233 229 228 227 224 222 223 222
200 215 237 276 295 303 317 322 327 331 334 338 342 342 342 344 347 350 352 353 353 354 355 355 357 358 356 351 345 334 311 283 266 251 241 235 231 229 227 225 224 224 222
203 216 236 272 290 302 314 319 321 326 330 333 337 340 341 342 343 346 350 353 354 355 356 357 358 359 357 354 349 343 327 299 275 259 250 241 232 229 228 227 224 222 221
Height
5880 5879 5880 5880 5880 5880 5881 5881 5880 5880 5880 5880 5879 5879 5878 5878 5877 5876 5875 5874 5874 5873 5873 5872 5872 5872 5872 5872 5872 5873 5873 5873 5873 5873 5873 5874 5874 5874 5874 5874 5874 5874 5873
5879 5879 5880 5880 5880 5880 5880 5880 5880 5880 5879 5879 5878 5878 5877 5876 5875 5875 5874 5873 5872 5871 5871 5871 5870 5870 5870 5870 5870 5871 5871 5871 5871 5871 5872 5872 5872 5872 5872 5872 5872 5872 5872
5879 5879 5879 5880 5880 5880 5880 5880 5880 5879 5879 5878 5877 5877 5876 5875 5874 5873 5872 5871 5870 5870 5869 5869 5868 5868 5868 5868 5868 5868 5869 5869 5869 5870 5870 5870 5871 5871 5871 5871 5871 5871 5871
5878 5878 5879 5879 5879 5879 5879 5879 5879 5879 5878 5877 5876 5875 5874 5873 5872 5871 5870 5870 5869 5868 5867 5866 5866 5866 5866 5866 5866 5866 5867 5867 5867 5868 5868 5868 5869 5869 5870 5870 5870 5870 5870
5877 5878 5878 5879 5879 5879 5879 5879 5878 5878 5877 5876 5875 5874 5873 5872 5871 5870 5869 5868 5866 5866 5865 5864 5864 5864 5864 5864 5864 5864 5864 5865 5865 5866 5866 5867 5867 5868 5868 5868 5869 5869 5870
5877 5877 5878 5878 5878 5878 5878 5878 5877 5877 5876 5875 5874 5873 5871 5870 5869 5868 5867 5866 5864 5864 5863 5862 5862 5862 5862 5861 5862 5862 5862 5863 5863 5864 5864 5865 5865 5866 5866 5867 5867 5868 5869
5876 5877 5877 5878 5878 5878 5878 5877 5877 5876 5875 5874 5873 5871 5870 5869 5867 5866 5865 5864 5863 5862 5861 5860 5860 5859 5859 5859 5859 5859 5860 5860 5861 5861 5862 5862 5863 5864 5865 5865 5866 5866 5868
5876 5876 5877 5877 5877 5877 5877 5876 5876 5875 5874 5873 5872 5870 5869 5867 5866 5865 5863 5862 5861 5860 5859 5858 5857 5857 5857 5857 5857 5857 5857 5857 5858 5859 5859 5860 5861 5862 5863 5864 5865 5866 5867
5875 5876 5876 5877 5877 5877 5876 5876 5875 5874 5873 5872 5870 5869 5868 5866 5865 5863 5862 5860 5859 5858 5856 5856 5855 5854 5854 5854 5854 5854 5854 5855 5855 5856 5857 5858 5859 5860 5861 5862 5863 5864 5866
5874 5875 5876 5876 5876 5876 5875 5875 5874 5873 5872 5871 5869 5868 5866 5865 5863 5861 5860 5858 5857 5855 5854 5853 5852 5851 5851 5851 5851 5851 5851 5852 5852 5853 5854 5855 5856 5858 5859 5860 5862 5863 5864
5874 5875 5875 5875 5875 5875 5875 5874 5873 5872 5871 5870 5868 5867 5865 5863 5861 5859 5858 5856 5855 5853 5852 5851 5850 5849 5848 5848 5848 5848 5848 5849 5850 5850 5851 5852 5854 5855 5857 5858 5860 5861 5863
5873 5874 5874 5874 5874 5874 5874 5873 5872 5871 5870 5869 5867 5865 5863 5862 5860 5858 5856 5854 5852 5851 5849 5848 5847 5846 5845 5845 5845 5845 5845 5846 5847 5847 5848 5850 5851 5853 5854 5856 5858 5860 5861
5873 5873 5873 5874 5874 5873 5873 5872 5871 5870 5869 5867 5866 5864 5862 5860 5858 5856 5854 5852 5850 5848 5847 5845 5844 5843 5842 5842 5842 5842 5842 5843 5844 5844 5846 5847 5848 5850 5852 5854 5856 5858 5860
5872 5872 5873 5873 5873 5872 5871 5871 5870 5869 5867 5866 5864 5862 5861 5858 5856 5854 5852 5850 5848 5846 5844 5842 5841 5840 5839 5838 5838 5838 5839 5840 5840 5841 5842 5844 5846 5847 5849 5851 5854 5856 5858
5871 5871 5872 5872 5872 5871 5871 5870 5869 5867 5866 5865 5863 5861 5859 5857 5855 5852 5850 5847 5845 5843 5841 5839 5838 5836 5835 5835 5835 5835 5836 5836 5837 5838 5839 5841 5843 5845 5847 5849 5851 5854 5856
5870 5870 5871 5871 5870 5870 5870 5869 5868 5866 5865 5863 5861 5859 5857 5855 5853 5850 5848 5845 5843 5840 5838 5836 5834 5833 5832 5832 5832 5832 5832 5833 5834 5835 5837 5838 5840 5842 5844 5847 5849 5851 5854
5869 5870 5870 5869 5869 5869 5869 5868 5866 5865 5864 5862 5860 5858 5856 5854 5851 5848 5846 5843 5840 5838 5835 5833 5831 5830 5829 5829 5829 5829 5829 5830 5831 5832 5834 5835 5837 5839 5842 5844 5846 5849 5851
5868 5869 5869 5869 5869 5868 5868 5867 5865 5864 5862 5861 5859 5857 5854 5852 5849 5847 5844 5841 5838 5836 5833 5831 5829 5827 5826 5826 5825 5825 5826 5827 5828 5829 5831 5833 5834 5837 5839 5841 5844 5846 5849
5867 5868 5868 5868 5868 5867 5867 5866 5864 5863 5861 5859 5857 5855 5853 5850 5848 5845 5842 5839 5836 5834 5831 5829 5827 5825 5823 5823 5822 5822 5823 5824 5825 5826 5828 5830 5831 5834 5836 5838 5841 5844 5846
5867 5867 5867 5867 5867 5867 5866 5865 5863 5862 5860 5858 5856 5854 5851 5849 5846 5843 5840 5837 5835 5832 5829 5827 5824 5822 5821 5820 5819 5819 5820 5821 5822 5823 5825 5827 5829 5831 5833 5835 5838 5841 5843
5866 5866 5866 5866 5866 5865 5864 5863 5862 5861 5859 5857 5855 5853 5850 5848 5845 5842 5839 5836 5833 5830 5828 5825 5822 5820 5819 5818 5817 5817 5818 5818 5819 5821 5822 5824 5826 5828 5830 5832 5835 5838 5840
5864 5865 5865 5865 5865 5864 5863 5862 5861 5860 5858 5856 5854 5852 5849 5847 5844 5841 5838 5835 5832 5829 5826 5823 5821 5819 5817 5816 5815 5815 5815 5817 5817 5818 5820 5821 5823 5825 5827 5829 5832 5835 5837
5863 5864 5864 5864 5863 5863 5862 5861 5860 5859 5857 5855 5853 5851 5848 5846 5843 5840 5837 5834 5831 5828 5825 5822 5819 5817 5816 5815 5814 5814 5814 5814 5815 5817 5818 5819 5820 5822 5824 5826 5829 5831 5834
5862 5862 5862 5862 5862 5862 5861 5860 5859 5857 5856 5854 5852 5850 5848 5845 5842 5839 5836 5833 5830 5827 5824 5822 5819 5817 5815 5814 5813 5813 5813 5813 5814 5815 5816 5817 5818 5819 5821 5823 5825 5828 5831
5861 5861 5862 5862 5861 5861 5860 5859 5858 5856 5855 5853 5851 5849 5846 5844 5841 5838 5835 5833 5830 5827 5824 5821 5819 5817 5815 5814 5813 5812 5812 5812 5812 5813 5814 5814 5815 5816 5818 5820 5822 5824 5827
5860 5861 5861 5861 5860 5859 5858 5857 5856 5855 5854 5852 5850 5848 5845 5843 5840 5838 5835 5832 5829 5827 5824 5821 5819 5817 5815 5814 5813 5812 5811 5811 5811 5811 5811 5812 5813 5814 5815 5817 5819 5821 5824